Track STARLINK-2368 now! 10-day predictions STARLINK-2368 is classified as:
1 47908U 21021BA 21110.58335648 -.00026720 00000-0 -18628-3 0 9998 2 47908 53.0510 33.1748 0001126 76.4601 168.9392 15.73231324 1778